Resultados

800 Electronico
Fecha Serie Viento Presión Humedad Temperatura
02-10-2016 Final_A
Puesto Andanivel Nombre Dia Mes Año Pais Marca
01 Alegre Diego Facundo 7 9 2000 CTS 2.00.03 -
02 Alegre Lautaro 13 4 1999 SF 2.01.26 -
03 Alvarez Emanuel Alejandro 8 12 2000 ER 2.01.57 -
04 Vera Tiago Nahuel 20 2 2000 CTS 2.01.86 -
05 Grisman Gabriel 27 2 2000 FAPBA 2.02.15 -
06 Manrique Ezequiel 16 2 1999 LRI 2.03.83 -
07 Martinez Emanuel 9 4 2001 BA 2.03.85 -
08 Pires Bruno 17 1 2001 ER 2.05.08 -
09 Burgos Nicolas 3 3 2000 ER 2.05.09 -
10 Romero Matias 24 11 2001 BA 2.05.10 -
11 Moyano Rodrigo Alejandro 24 8 2000 FAM 2.05.46 -
12 Elias Ruben Pereyra 27 7 2000 NEU 2.06.15 -
13 Brian Alan Sasso 23 4 2000 FAM 2.06.94 -
14 Tivani Kevin 22 11 1999 BA 2.06.99 -
15 Lucas Guillermo 1 10 2000 FAM 2.07.21 -
16 Ferreira Nicolas 1 1 2000 MZA 2.07.46 -
17 Campos Fernando 17 4 2000 MZA 2.09.75 -
18 Modi Julian 14 5 1999 CTS 2.12.99 -
19 Gallardo Delgado Jose Ignacio 5 4 2001 SJ 2.13.64 -
20 Gonzalez Pool Alan 24 6 2001 LRI 2.13.65 -
21 Gonzalez Fabian 20 8 1999 MNS 2.14.14 -
22 Acuna Amir 27 2 2001 NEU 2.14.44 -
23 Saracco Ignacio 3 10 2000 MZA 2.17.88 -
99 Arriagada Axel 9 9 2001 CHU DNS